Time,TemperatureF,DewpointF,PressureIn,WindDirection,WindDirectionDegrees,WindSpeedMPH,WindSpeedGustMPH,Humidity,HourlyPrecipIn,Conditions,Clouds,dailyrainin,SoftwareType,DateUTC
2013-02-28 00:00:00,29.8,22.5,29.99,North,0,0.9,3.1,74,0.00,,,0.00,WUHU21623XXSP,2013-02-28 06:00:00,
2013-02-28 00:05:00,29.8,22.5,29.99,NNE,22,4.7,4.7,74,0.00,,,0.00,WUHU21623XXSP,2013-02-28 06:05:00,
2013-02-28 00:10:00,29.8,22.8,30.00,NNE,26,1.9,4.7,75,0.00,,,0.00,WUHU21623XXSP,2013-02-28 06:10:00,
2013-02-28 00:15:00,30.0,23.0,30.00,North,11,2.5,4.9,75,0.00,,,0.00,WUHU21623XXSP,2013-02-28 06:15:00,
2013-02-28 00:20:00,30.0,23.0,30.00,North,353,2.0,4.9,75,0.00,,,0.00,WUHU21623XXSP,2013-02-28 06:20:00,
2013-02-28 00:25:00,30.0,23.0,30.01,North,0,2.2,6.3,75,0.00,,,0.00,WUHU21623XXSP,2013-02-28 06:25:00,
2013-02-28 00:30:00,30.0,23.0,30.01,North,359,2.3,6.3,75,0.00,,,0.00,WUHU21623XXSP,2013-02-28 06:30:00,
2013-02-28 00:35:00,30.2,23.2,30.01,NNW,345,1.1,4.5,75,0.00,,,0.00,WUHU21623XXSP,2013-02-28 06:35:00,
2013-02-28 00:41:00,30.4,23.4,30.01,NNW,327,1.9,3.1,75,0.00,,,0.00,WUHU21623XXSP,2013-02-28 06:41:00,
2013-02-28 00:46:00,30.4,23.4,30.01,NW,315,1.6,3.1,75,0.00,,,0.00,WUHU21623XXSP,2013-02-28 06:46:00,
2013-02-28 00:51:00,30.4,23.4,30.01,NNW,337,1.3,2.9,75,0.00,,,0.00,WUHU21623XXSP,2013-02-28 06:51:00,
2013-02-28 00:56:00,30.2,23.2,30.02,NNW,345,1.0,2.9,75,0.00,,,0.00,WUHU21623XXSP,2013-02-28 06:56:00,
2013-02-28 01:01:00,30.0,22.7,30.02,NNW,337,1.8,2.2,74,0.00,,,0.00,WUHU21623XXSP,2013-02-28 07:01:00,
2013-02-28 01:06:00,30.0,22.7,30.02,NNW,337,1.8,2.2,74,0.00,,,0.00,WUHU21623XXSP,2013-02-28 07:06:00,
2013-02-28 01:11:00,30.0,22.7,30.02,NW,315,1.6,2.2,74,0.00,,,0.00,WUHU21623XXSP,2013-02-28 07:11:00,
2013-02-28 01:16:00,29.8,22.5,30.02,NNW,331,1.8,2.5,74,0.00,,,0.00,WUHU21623XXSP,2013-02-28 07:16:00,
2013-02-28 01:21:00,29.8,22.8,30.02,NNW,335,1.2,3.8,75,0.00,,,0.00,WUHU21623XXSP,2013-02-28 07:21:00,
2013-02-28 01:26:00,30.0,23.0,30.02,NNW,335,1.4,3.8,75,0.00,,,0.00,WUHU21623XXSP,2013-02-28 07:26:00,
2013-02-28 01:31:00,30.0,23.0,30.03,NNW,341,2.0,3.1,75,0.00,,,0.00,WUHU21623XXSP,2013-02-28 07:31:00,
2013-02-28 01:36:00,30.0,23.0,30.02,North,0,0.9,3.1,75,0.00,,,0.00,WUHU21623XXSP,2013-02-28 07:36:00,
2013-02-28 01:41:00,30.0,23.0,30.03,North,349,0.9,4.5,75,0.00,,,0.00,WUHU21623XXSP,2013-02-28 07:41:00,
2013-02-28 01:46:00,30.0,23.0,30.03,NNW,343,1.9,4.5,75,0.00,,,0.00,WUHU21623XXSP,2013-02-28 07:46:00,
2013-02-28 01:51:00,30.0,23.0,30.03,North,4,3.0,6.3,75,0.00,,,0.00,WUHU21623XXSP,2013-02-28 07:51:00,
2013-02-28 01:56:00,30.0,23.0,30.03,North,0,2.7,6.3,75,0.00,,,0.00,WUHU21623XXSP,2013-02-28 07:56:00,
2013-02-28 02:01:00,30.2,23.2,30.03,North,0,1.2,5.8,75,0.00,,,0.00,WUHU21623XXSP,2013-02-28 08:01:00,
2013-02-28 02:06:00,30.4,23.4,30.03,NNE,22,1.7,3.6,75,0.00,,,0.00,WUHU21623XXSP,2013-02-28 08:06:00,
2013-02-28 02:11:00,30.4,23.4,30.04,North,0,2.0,3.6,75,0.00,,,0.00,WUHU21623XXSP,2013-02-28 08:11:00,
2013-02-28 02:16:00,30.4,23.4,30.03,NE,45,2.9,2.9,75,0.00,,,0.00,WUHU21623XXSP,2013-02-28 08:16:00,
2013-02-28 02:21:00,30.6,23.5,30.03,NNE,22,3.6,3.6,75,0.00,,,0.00,WUHU21623XXSP,2013-02-28 08:21:00,
2013-02-28 02:26:00,30.6,23.5,30.03,North,0,4.3,5.4,75,0.00,,,0.00,WUHU21623XXSP,2013-02-28 08:26:00,
2013-02-28 02:31:00,30.6,23.5,30.03,NNE,13,2.0,5.4,75,0.00,,,0.00,WUHU21623XXSP,2013-02-28 08:31:00,
2013-02-28 02:36:00,30.7,23.7,30.03,NNE,22,2.0,3.8,75,0.00,,,0.00,WUHU21623XXSP,2013-02-28 08:36:00,
2013-02-28 02:41:00,30.7,23.7,30.03,NNE,16,1.5,2.9,75,0.00,,,0.00,WUHU21623XXSP,2013-02-28 08:41:00,
2013-02-28 02:46:00,30.7,23.7,30.03,NNE,20,3.0,4.3,75,0.00,,,0.00,WUHU21623XXSP,2013-02-28 08:46:00,
2013-02-28 02:51:00,30.7,23.7,30.03,North,0,1.2,4.3,75,0.00,,,0.00,WUHU21623XXSP,2013-02-28 08:51:00,
2013-02-28 02:56:00,30.7,23.7,30.04,North,0,1.6,2.5,75,0.00,,,0.00,WUHU21623XXSP,2013-02-28 08:56:00,
2013-02-28 03:01:00,30.7,23.7,30.04,North,0,1.5,2.5,75,0.00,,,0.00,WUHU21623XXSP,2013-02-28 09:01:00,
2013-02-28 03:06:00,30.7,23.7,30.04,North,6,1.3,3.6,75,0.00,,,0.00,WUHU21623XXSP,2013-02-28 09:06:00,
2013-02-28 03:11:00,30.7,23.7,30.04,North,0,1.3,3.6,75,0.00,,,0.00,WUHU21623XXSP,2013-02-28 09:11:00,
2013-02-28 03:16:00,30.7,23.7,30.04,North,6,1.3,2.0,75,0.00,,,0.00,WUHU21623XXSP,2013-02-28 09:16:00,
2013-02-28 03:21:00,30.7,23.7,30.04,WSW,247,2.2,4.5,75,0.00,,,0.00,WUHU21623XXSP,2013-02-28 09:21:00,
2013-02-28 03:26:00,30.9,23.9,30.04,North,0,2.0,4.5,75,0.00,,,0.00,WUHU21623XXSP,2013-02-28 09:26:00,
2013-02-28 03:31:00,30.9,23.9,30.04,North,8,6.0,10.5,75,0.00,,,0.00,WUHU21623XXSP,2013-02-28 09:31:00,
2013-02-28 03:36:00,30.9,23.6,30.04,North,0,7.8,10.5,74,0.00,,,0.00,WUHU21623XXSP,2013-02-28 09:36:00,
2013-02-28 03:41:00,30.9,23.6,30.05,NNE,21,3.5,7.8,74,0.00,,,0.00,WUHU21623XXSP,2013-02-28 09:41:00,
2013-02-28 03:46:00,30.9,23.6,30.04,NNE,15,3.3,7.4,74,0.00,,,0.00,WUHU21623XXSP,2013-02-28 09:46:00,
2013-02-28 03:51:00,31.1,23.8,30.05,NNE,22,3.4,6.0,74,0.00,,,0.00,WUHU21623XXSP,2013-02-28 09:51:00,
2013-02-28 03:56:00,30.9,23.6,30.04,North,11,1.3,3.8,74,0.00,,,0.00,WUHU21623XXSP,2013-02-28 09:56:00,
2013-02-28 04:01:00,30.9,23.6,30.05,NNE,13,2.1,3.8,74,0.00,,,0.00,WUHU21623XXSP,2013-02-28 10:01:00,
2013-02-28 04:06:00,30.9,23.6,30.05,NNE,19,2.8,6.9,74,0.00,,,0.00,WUHU21623XXSP,2013-02-28 10:06:00,
2013-02-28 04:11:00,31.1,23.8,30.05,North,358,2.8,6.9,74,0.00,,,0.00,WUHU21623XXSP,2013-02-28 10:11:00,
2013-02-28 04:16:00,31.1,23.8,30.05,NNE,13,2.8,6.3,74,0.00,,,0.00,WUHU21623XXSP,2013-02-28 10:16:00,
2013-02-28 04:21:00,31.1,23.8,30.05,NNE,27,2.3,6.3,74,0.00,,,0.00,WUHU21623XXSP,2013-02-28 10:21:00,
2013-02-28 04:26:00,31.1,23.8,30.06,NW,315,1.8,4.5,74,0.00,,,0.00,WUHU21623XXSP,2013-02-28 10:26:00,
2013-02-28 04:31:00,31.1,23.8,30.06,NNE,18,2.2,4.3,74,0.00,,,0.00,WUHU21623XXSP,2013-02-28 10:31:00,
2013-02-28 04:36:00,31.1,23.8,30.06,NNE,22,4.0,6.3,74,0.00,,,0.00,WUHU21623XXSP,2013-02-28 10:36:00,
2013-02-28 04:41:00,31.1,23.4,30.06,North,0,4.7,6.3,73,0.00,,,0.00,WUHU21623XXSP,2013-02-28 10:41:00,
2013-02-28 04:47:00,31.1,23.4,30.07,NNE,12,1.9,8.1,73,0.00,,,0.00,WUHU21623XXSP,2013-02-28 10:47:00,
2013-02-28 04:52:00,31.1,23.4,30.07,NE,45,3.1,8.1,73,0.00,,,0.00,WUHU21623XXSP,2013-02-28 10:52:00,
2013-02-28 04:57:00,31.1,23.4,30.07,NNE,22,3.8,6.7,73,0.00,,,0.00,WUHU21623XXSP,2013-02-28 10:57:00,
2013-02-28 05:02:00,31.1,23.4,30.07,NNE,22,3.6,6.7,73,0.00,,,0.00,WUHU21623XXSP,2013-02-28 11:02:00,
2013-02-28 05:07:00,31.1,23.4,30.07,NNE,20,3.3,5.1,73,0.00,,,0.00,WUHU21623XXSP,2013-02-28 11:07:00,
2013-02-28 05:12:00,31.1,23.4,30.07,NNE,14,3.5,6.9,73,0.00,,,0.00,WUHU21623XXSP,2013-02-28 11:12:00,
2013-02-28 05:17:00,31.1,23.4,30.07,North,0,2.5,7.2,73,0.00,,,0.00,WUHU21623XXSP,2013-02-28 11:17:00,
2013-02-28 05:22:00,31.1,23.4,30.06,NNE,12,2.3,7.2,73,0.00,,,0.00,WUHU21623XXSP,2013-02-28 11:22:00,
2013-02-28 05:27:00,31.1,23.4,30.06,North,6,2.9,5.8,73,0.00,,,0.00,WUHU21623XXSP,2013-02-28 11:27:00,
2013-02-28 05:32:00,30.9,23.3,30.07,NNE,15,3.1,7.2,73,0.00,,,0.00,WUHU21623XXSP,2013-02-28 11:32:00,
2013-02-28 05:37:00,30.9,23.3,30.07,NNE,22,4.5,7.2,73,0.00,,,0.00,WUHU21623XXSP,2013-02-28 11:37:00,
2013-02-28 05:42:00,30.9,23.3,30.07,NNE,21,3.5,8.1,73,0.00,,,0.00,WUHU21623XXSP,2013-02-28 11:42:00,
2013-02-28 05:47:00,30.9,23.3,30.07,North,6,3.4,8.1,73,0.00,,,0.00,WUHU21623XXSP,2013-02-28 11:47:00,
2013-02-28 05:52:00,30.9,23.3,30.07,NNE,13,4.0,8.5,73,0.00,,,0.00,WUHU21623XXSP,2013-02-28 11:52:00,
2013-02-28 05:57:00,30.9,23.3,30.06,North,0,8.9,8.9,73,0.00,,,0.00,WUHU21623XXSP,2013-02-28 11:57:00,
2013-02-28 06:02:00,30.9,23.3,30.07,NNE,22,9.4,9.4,73,0.00,,,0.00,WUHU21623XXSP,2013-02-28 12:02:00,
2013-02-28 06:07:00,30.9,23.3,30.07,North,0,7.6,11.6,73,0.00,,,0.00,WUHU21623XXSP,2013-02-28 12:07:00,
2013-02-28 06:12:00,30.7,23.1,30.07,NNE,18,3.7,9.2,73,0.00,,,0.00,WUHU21623XXSP,2013-02-28 12:12:00,
2013-02-28 06:17:00,30.7,23.1,30.06,North,0,4.3,9.2,73,0.00,,,0.00,WUHU21623XXSP,2013-02-28 12:17:00,
2013-02-28 06:22:00,30.7,23.1,30.07,NNE,21,4.5,9.2,73,0.00,,,0.00,WUHU21623XXSP,2013-02-28 12:22:00,
2013-02-28 06:27:00,30.7,23.1,30.07,North,10,3.5,6.7,73,0.00,,,0.00,WUHU21623XXSP,2013-02-28 12:27:00,
2013-02-28 06:32:00,30.7,23.1,30.07,North,0,5.6,7.2,73,0.00,,,0.00,WUHU21623XXSP,2013-02-28 12:32:00,
2013-02-28 06:37:00,30.7,23.1,30.07,NNE,23,3.3,9.6,73,0.00,,,0.00,WUHU21623XXSP,2013-02-28 12:37:00,
2013-02-28 06:42:00,30.7,23.1,30.06,NNE,16,4.7,9.6,73,0.00,,,0.00,WUHU21623XXSP,2013-02-28 12:42:00,
2013-02-28 06:47:00,30.7,23.1,30.06,NNE,22,6.7,7.2,73,0.00,,,0.00,WUHU21623XXSP,2013-02-28 12:47:00,
2013-02-28 06:52:00,30.7,23.1,30.06,NNE,22,5.8,6.7,73,0.00,,,0.00,WUHU21623XXSP,2013-02-28 12:52:00,
2013-02-28 06:57:00,30.7,23.4,30.07,ENE,67,4.0,10.5,74,0.00,,,0.00,WUHU21623XXSP,2013-02-28 12:57:00,
2013-02-28 07:02:00,30.6,23.2,30.07,NNE,25,5.7,11.4,74,0.00,,,0.00,WUHU21623XXSP,2013-02-28 13:02:00,
2013-02-28 07:07:00,30.6,22.9,30.06,North,8,6.5,11.4,73,0.00,,,0.00,WUHU21623XXSP,2013-02-28 13:07:00,
2013-02-28 07:12:00,30.6,22.9,30.07,North,11,6.6,11.2,73,0.00,,,0.00,WUHU21623XXSP,2013-02-28 13:12:00,
2013-02-28 07:17:00,30.6,22.9,30.07,NNE,22,4.7,10.3,73,0.00,,,0.00,WUHU21623XXSP,2013-02-28 13:17:00,
2013-02-28 07:22:00,30.6,22.9,30.07,NNE,15,2.4,6.7,73,0.00,,,0.00,WUHU21623XXSP,2013-02-28 13:22:00,
2013-02-28 07:27:00,30.6,22.9,30.08,North,4,1.3,6.7,73,0.00,,,0.00,WUHU21623XXSP,2013-02-28 13:27:00,
2013-02-28 07:32:00,30.6,23.2,30.08,NNE,22,3.6,5.1,74,0.00,,,0.00,WUHU21623XXSP,2013-02-28 13:32:00,
2013-02-28 07:37:00,30.6,23.0,30.08,North,0,3.6,10.3,74,0.00,,,0.00,WUHU21623XXSP,2013-02-28 13:37:00,
2013-02-28 07:42:00,30.4,23.0,30.08,NNE,16,4.7,10.3,74,0.00,,,0.00,WUHU21623XXSP,2013-02-28 13:42:00,
2013-02-28 07:47:00,30.4,23.0,30.08,North,5,5.3,10.1,74,0.00,,,0.00,WUHU21623XXSP,2013-02-28 13:47:00,
2013-02-28 07:52:00,30.4,23.0,30.08,NNE,14,4.8,10.1,74,0.00,,,0.00,WUHU21623XXSP,2013-02-28 13:52:00,
2013-02-28 07:57:00,30.4,23.0,30.08,NNE,22,4.0,9.6,74,0.00,,,0.00,WUHU21623XXSP,2013-02-28 13:57:00,
2013-02-28 08:02:00,30.4,23.0,30.08,North,0,8.3,8.3,74,0.00,,,0.00,WUHU21623XXSP,2013-02-28 14:02:00,
2013-02-28 08:07:00,30.4,23.0,30.08,North,5,6.2,10.7,74,0.00,,,0.00,WUHU21623XXSP,2013-02-28 14:07:00,
2013-02-28 08:12:00,30.4,23.0,30.08,North,8,3.9,10.7,74,0.00,,,0.00,WUHU21623XXSP,2013-02-28 14:12:00,
2013-02-28 08:17:00,30.4,23.0,30.09,NNE,22,5.4,7.4,74,0.00,,,0.00,WUHU21623XXSP,2013-02-28 14:17:00,
2013-02-28 08:22:00,30.4,23.0,30.09,NNE,22,5.6,10.5,74,0.00,,,0.00,WUHU21623XXSP,2013-02-28 14:22:00,
2013-02-28 08:27:00,30.4,23.0,30.09,NNE,33,3.5,10.5,74,0.00,,,0.00,WUHU21623XXSP,2013-02-28 14:27:00,
2013-02-28 08:32:00,30.4,23.0,30.10,North,0,6.3,9.4,74,0.00,,,0.00,WUHU21623XXSP,2013-02-28 14:32:00,
2013-02-28 08:37:00,30.4,23.0,30.10,NNE,22,12.1,12.1,74,0.00,,,0.00,WUHU21623XXSP,2013-02-28 14:37:00,
2013-02-28 08:42:00,30.4,23.0,30.10,North,11,5.0,12.1,74,0.00,,,0.00,WUHU21623XXSP,2013-02-28 14:42:00,
2013-02-28 08:47:00,30.4,22.5,30.10,North,0,8.9,11.0,73,0.00,,,0.00,WUHU21623XXSP,2013-02-28 14:47:00,
2013-02-28 08:52:00,30.2,22.5,30.10,NNE,22,5.8,11.0,73,0.00,,,0.00,WUHU21623XXSP,2013-02-28 14:52:00,
2013-02-28 08:57:00,30.2,22.5,30.10,NNE,14,8.4,11.2,73,0.00,,,0.00,WUHU21623XXSP,2013-02-28 14:57:00,
2013-02-28 09:02:00,30.2,22.5,30.11,NNE,22,10.5,12.1,73,0.00,,,0.00,WUHU21623XXSP,2013-02-28 15:02:00,
2013-02-28 09:07:00,30.2,22.5,30.11,North,359,5.1,12.1,73,0.00,,,0.00,WUHU21623XXSP,2013-02-28 15:07:00,
2013-02-28 09:12:00,30.2,22.5,30.11,NNE,22,9.2,11.4,73,0.00,,,0.00,WUHU21623XXSP,2013-02-28 15:12:00,
2013-02-28 09:18:00,30.2,22.5,30.11,NNE,22,9.2,10.5,73,0.00,,,0.00,WUHU21623XXSP,2013-02-28 15:18:00,
2013-02-28 09:23:00,30.4,22.7,30.11,NNE,22,6.7,9.6,73,0.00,,,0.00,WUHU21623XXSP,2013-02-28 15:23:00,
2013-02-28 09:28:00,30.4,22.7,30.11,NNE,22,4.9,9.6,73,0.00,,,0.00,WUHU21623XXSP,2013-02-28 15:28:00,
2013-02-28 09:33:00,30.4,22.7,30.11,NNE,15,6.6,11.9,73,0.00,,,0.00,WUHU21623XXSP,2013-02-28 15:33:00,
2013-02-28 09:38:00,30.6,22.9,30.12,NNE,22,13.6,13.6,73,0.00,,,0.00,WUHU21623XXSP,2013-02-28 15:38:00,
2013-02-28 09:43:00,30.6,22.9,30.12,North,0,8.7,13.6,73,0.00,,,0.00,WUHU21623XXSP,2013-02-28 15:43:00,
2013-02-28 09:48:00,30.6,22.9,30.12,NNE,22,5.8,10.3,73,0.00,,,0.00,WUHU21623XXSP,2013-02-28 15:48:00,
2013-02-28 09:53:00,30.6,22.9,30.13,NNE,28,6.0,10.3,73,0.00,,,0.00,WUHU21623XXSP,2013-02-28 15:53:00,
2013-02-28 09:58:00,30.7,23.1,30.13,NE,45,6.3,9.8,73,0.00,,,0.00,WUHU21623XXSP,2013-02-28 15:58:00,
2013-02-28 10:03:00,30.7,23.1,30.13,NNE,22,4.5,8.5,73,0.00,,,0.00,WUHU21623XXSP,2013-02-28 16:03:00,
2013-02-28 10:08:00,30.7,23.1,30.13,NNE,17,4.9,9.2,73,0.00,,,0.00,WUHU21623XXSP,2013-02-28 16:08:00,
2013-02-28 10:13:00,30.7,23.1,30.13,NE,39,5.1,9.2,73,0.00,,,0.00,WUHU21623XXSP,2013-02-28 16:13:00,
2013-02-28 10:18:00,30.7,23.1,30.13,ENE,67,4.7,8.3,73,0.00,,,0.00,WUHU21623XXSP,2013-02-28 16:18:00,
2013-02-28 10:23:00,30.7,23.1,30.13,NNE,24,3.8,7.6,73,0.00,,,0.00,WUHU21623XXSP,2013-02-28 16:23:00,
2013-02-28 10:28:00,30.7,23.1,30.13,North,0,4.3,7.2,73,0.00,,,0.00,WUHU21623XXSP,2013-02-28 16:28:00,
2013-02-28 10:33:00,30.9,23.3,30.13,NNE,22,4.6,9.6,73,0.00,,,0.00,WUHU21623XXSP,2013-02-28 16:33:00,
2013-02-28 10:38:00,31.1,23.4,30.13,NE,45,5.1,9.6,73,0.00,,,0.00,WUHU21623XXSP,2013-02-28 16:38:00,
2013-02-28 10:43:00,31.3,23.3,30.13,NE,37,4.0,7.8,72,0.00,,,0.00,WUHU21623XXSP,2013-02-28 16:43:00,
2013-02-28 10:48:00,31.3,23.3,30.13,NNE,22,5.6,7.8,72,0.00,,,0.00,WUHU21623XXSP,2013-02-28 16:48:00,
2013-02-28 10:53:00,31.5,23.5,30.13,NNE,16,4.7,11.9,72,0.00,,,0.00,WUHU21623XXSP,2013-02-28 16:53:00,
2013-02-28 10:58:00,31.6,23.6,30.13,NE,45,4.5,11.9,72,0.00,,,0.00,WUHU21623XXSP,2013-02-28 16:58:00,
2013-02-28 11:03:00,31.6,23.6,30.13,North,0,5.8,10.7,72,0.00,,,0.00,WUHU21623XXSP,2013-02-28 17:03:00,
2013-02-28 11:08:00,31.8,23.8,30.13,North,8,4.3,10.7,72,0.00,,,0.00,WUHU21623XXSP,2013-02-28 17:08:00,
2013-02-28 11:13:00,31.6,23.6,30.14,NNE,18,6.1,9.8,72,0.00,,,0.00,WUHU21623XXSP,2013-02-28 17:13:00,
2013-02-28 11:18:00,31.6,23.3,30.14,NNE,22,8.1,9.8,71,0.00,,,0.00,WUHU21623XXSP,2013-02-28 17:18:00,
2013-02-28 11:23:00,31.6,23.3,30.15,NNE,22,6.7,10.5,71,0.00,,,0.00,WUHU21623XXSP,2013-02-28 17:23:00,
2013-02-28 11:28:00,31.6,23.3,30.14,NNE,15,4.5,11.0,71,0.00,,,0.00,WUHU21623XXSP,2013-02-28 17:28:00,
2013-02-28 11:33:00,31.6,23.0,30.14,NNE,22,5.8,11.0,70,0.00,,,0.00,WUHU21623XXSP,2013-02-28 17:33:00,
2013-02-28 11:38:00,31.6,23.0,30.14,NNE,15,5.2,13.0,70,0.00,,,0.00,WUHU21623XXSP,2013-02-28 17:38:00,
2013-02-28 11:43:00,31.6,23.0,30.14,NE,39,3.3,13.0,70,0.00,,,0.00,WUHU21623XXSP,2013-02-28 17:43:00,
2013-02-28 11:48:00,31.8,23.2,30.14,NNE,18,6.0,10.7,70,0.00,,,0.00,WUHU21623XXSP,2013-02-28 17:48:00,
2013-02-28 11:53:00,31.8,23.2,30.15,NE,45,4.5,10.7,70,0.00,,,0.00,WUHU21623XXSP,2013-02-28 17:53:00,
2013-02-28 11:58:00,31.8,23.2,30.14,NNE,22,6.7,11.9,70,0.00,,,0.00,WUHU21623XXSP,2013-02-28 17:58:00,
2013-02-28 12:03:00,31.8,23.2,30.15,NNE,15,3.8,11.9,70,0.00,,,0.00,WUHU21623XXSP,2013-02-28 18:03:00,
2013-02-28 12:08:00,31.8,23.2,30.15,NNE,22,8.9,8.9,70,0.00,,,0.00,WUHU21623XXSP,2013-02-28 18:08:00,
2013-02-28 12:13:00,32.2,23.5,30.14,ENE,67,4.3,11.2,70,0.00,,,0.00,WUHU21623XXSP,2013-02-28 18:13:00,
2013-02-28 12:18:00,32.2,23.5,30.15,North,0,5.8,11.2,70,0.00,,,0.00,WUHU21623XXSP,2013-02-28 18:18:00,
2013-02-28 12:23:00,32.2,23.5,30.14,NNE,12,5.0,8.3,70,0.00,,,0.00,WUHU21623XXSP,2013-02-28 18:23:00,
2013-02-28 12:28:00,32.2,23.5,30.14,North,0,8.3,9.4,70,0.00,,,0.00,WUHU21623XXSP,2013-02-28 18:28:00,
2013-02-28 12:33:00,32.2,23.5,30.14,NNE,22,6.9,9.4,70,0.00,,,0.00,WUHU21623XXSP,2013-02-28 18:33:00,
2013-02-28 12:38:00,32.4,23.7,30.14,North,0,5.8,14.5,70,0.00,,,0.00,WUHU21623XXSP,2013-02-28 18:38:00,
2013-02-28 12:43:00,32.4,23.7,30.15,NE,34,6.4,14.5,70,0.00,,,0.00,WUHU21623XXSP,2013-02-28 18:43:00,
2013-02-28 12:49:00,32.4,23.3,30.14,NNW,337,10.3,10.3,69,0.00,,,0.00,WUHU21623XXSP,2013-02-28 18:49:00,
2013-02-28 12:54:00,32.2,23.2,30.14,NNE,22,9.2,13.0,69,0.00,,,0.00,WUHU21623XXSP,2013-02-28 18:54:00,
2013-02-28 12:59:00,32.4,23.3,30.14,NNE,22,4.3,13.0,69,0.00,,,0.00,WUHU21623XXSP,2013-02-28 18:59:00,
2013-02-28 13:04:00,32.2,23.2,30.14,North,4,5.7,12.5,69,0.00,,,0.00,WUHU21623XXSP,2013-02-28 19:04:00,
2013-02-28 13:09:00,32.2,23.2,30.14,NNE,22,4.6,12.5,69,0.00,,,0.00,WUHU21623XXSP,2013-02-28 19:09:00,
2013-02-28 13:14:00,32.2,23.2,30.14,North,0,8.1,9.8,69,0.00,,,0.00,WUHU21623XXSP,2013-02-28 19:14:00,
2013-02-28 13:19:00,32.4,23.2,30.14,NNE,22,6.7,10.7,69,0.00,,,0.00,WUHU21623XXSP,2013-02-28 19:19:00,
2013-02-28 13:24:00,32.2,23.2,30.14,NNE,22,4.5,10.7,69,0.00,,,0.00,WUHU21623XXSP,2013-02-28 19:24:00,
2013-02-28 13:29:00,32.2,23.2,30.14,North,10,4.1,10.5,69,0.00,,,0.00,WUHU21623XXSP,2013-02-28 19:29:00,
2013-02-28 13:34:00,32.2,23.2,30.14,North,9,4.6,10.5,69,0.00,,,0.00,WUHU21623XXSP,2013-02-28 19:34:00,
2013-02-28 13:39:00,32.2,23.2,30.14,NE,45,7.8,12.8,69,0.00,,,0.00,WUHU21623XXSP,2013-02-28 19:39:00,
2013-02-28 13:44:00,32.2,23.2,30.14,North,6,7.0,14.1,69,0.00,,,0.00,WUHU21623XXSP,2013-02-28 19:44:00,
2013-02-28 13:49:00,31.8,22.8,30.14,NNE,22,9.8,14.1,69,0.00,,,0.00,WUHU21623XXSP,2013-02-28 19:49:00,
2013-02-28 13:54:00,31.8,22.8,30.15,NNE,22,5.6,10.1,69,0.00,,,0.00,WUHU21623XXSP,2013-02-28 19:54:00,
2013-02-28 13:59:00,31.8,22.8,30.14,North,10,5.6,12.5,69,0.00,,,0.00,WUHU21623XXSP,2013-02-28 19:59:00,
2013-02-28 14:04:00,31.8,22.8,30.14,NNE,18,5.4,12.5,69,0.00,,,0.00,WUHU21623XXSP,2013-02-28 20:04:00,
2013-02-28 14:09:00,31.8,22.8,30.14,NNE,22,11.9,11.9,69,0.00,,,0.00,WUHU21623XXSP,2013-02-28 20:09:00,
2013-02-28 14:14:00,31.6,22.6,30.14,North,0,5.6,11.9,69,0.00,,,0.00,WUHU21623XXSP,2013-02-28 20:14:00,
2013-02-28 14:19:00,31.6,22.6,30.15,North,0,4.5,9.6,69,0.00,,,0.00,WUHU21623XXSP,2013-02-28 20:19:00,
2013-02-28 14:24:00,31.6,22.6,30.14,NNE,15,7.1,11.9,69,0.00,,,0.00,WUHU21623XXSP,2013-02-28 20:24:00,
2013-02-28 14:29:00,31.6,22.6,30.14,NNE,16,3.1,11.9,69,0.00,,,0.00,WUHU21623XXSP,2013-02-28 20:29:00,
2013-02-28 14:34:00,31.6,22.6,30.14,NNE,22,6.5,10.5,69,0.00,,,0.00,WUHU21623XXSP,2013-02-28 20:34:00,
2013-02-28 14:39:00,31.6,22.6,30.15,NNE,16,4.7,10.5,69,0.00,,,0.00,WUHU21623XXSP,2013-02-28 20:39:00,
2013-02-28 14:44:00,31.6,22.6,30.15,NE,45,8.5,10.7,69,0.00,,,0.00,WUHU21623XXSP,2013-02-28 20:44:00,
2013-02-28 14:49:00,31.6,22.6,30.15,North,0,7.6,10.7,69,0.00,,,0.00,WUHU21623XXSP,2013-02-28 20:49:00,
2013-02-28 14:54:00,31.6,22.6,30.15,NNE,18,6.4,11.2,69,0.00,,,0.00,WUHU21623XXSP,2013-02-28 20:54:00,
2013-02-28 14:59:00,31.6,22.6,30.15,NNE,22,7.4,11.2,69,0.00,,,0.00,WUHU21623XXSP,2013-02-28 20:59:00,
2013-02-28 15:04:00,31.5,22.5,30.15,NNE,17,5.6,17.2,69,0.00,,,0.00,WUHU21623XXSP,2013-02-28 21:04:00,
2013-02-28 15:09:00,31.3,22.3,30.15,North,3,6.0,17.2,69,0.00,,,0.00,WUHU21623XXSP,2013-02-28 21:09:00,
2013-02-28 15:14:00,31.3,22.3,30.15,North,0,10.3,13.0,69,0.00,,,0.00,WUHU21623XXSP,2013-02-28 21:14:00,
2013-02-28 15:19:00,31.3,22.3,30.15,North,0,9.8,10.7,69,0.00,,,0.00,WUHU21623XXSP,2013-02-28 21:19:00,
2013-02-28 15:24:00,31.3,22.3,30.15,NE,45,8.9,10.7,69,0.00,,,0.00,WUHU21623XXSP,2013-02-28 21:24:00,
2013-02-28 15:29:00,31.3,22.3,30.16,ENE,67,5.8,10.7,69,0.00,,,0.00,WUHU21623XXSP,2013-02-28 21:29:00,
2013-02-28 15:35:00,31.1,22.1,30.16,NNE,13,5.9,10.7,69,0.00,,,0.00,WUHU21623XXSP,2013-02-28 21:35:00,
2013-02-28 15:39:00,31.1,22.1,30.16,NE,45,5.8,8.5,69,0.00,,,0.00,WUHU21623XXSP,2013-02-28 21:39:00,
2013-02-28 15:44:00,31.1,22.1,30.16,North,7,7.7,10.5,69,0.00,,,0.00,WUHU21623XXSP,2013-02-28 21:44:00,
2013-02-28 15:50:00,31.1,21.7,30.16,North,0,3.8,11.6,68,0.00,,,0.00,WUHU21623XXSP,2013-02-28 21:50:00,
2013-02-28 15:55:00,30.9,21.6,30.16,NNE,20,7.3,11.6,68,0.00,,,0.00,WUHU21623XXSP,2013-02-28 21:55:00,
2013-02-28 16:00:00,30.9,21.6,30.17,NE,45,8.7,11.0,68,0.00,,,0.00,WUHU21623XXSP,2013-02-28 22:00:00,
2013-02-28 16:05:00,30.7,21.4,30.16,NNW,337,5.6,9.2,68,0.00,,,0.00,WUHU21623XXSP,2013-02-28 22:05:00,
2013-02-28 16:10:00,30.7,21.4,30.16,NNE,18,5.0,9.2,68,0.00,,,0.00,WUHU21623XXSP,2013-02-28 22:10:00,
2013-02-28 16:15:00,30.7,21.4,30.16,NNE,22,4.9,8.7,68,0.00,,,0.00,WUHU21623XXSP,2013-02-28 22:15:00,
2013-02-28 16:20:00,30.6,21.2,30.17,NNE,18,2.7,8.7,68,0.00,,,0.00,WUHU21623XXSP,2013-02-28 22:20:00,
2013-02-28 16:25:00,30.6,21.2,30.16,NE,45,7.8,8.7,68,0.00,,,0.00,WUHU21623XXSP,2013-02-28 22:25:00,
2013-02-28 16:30:00,30.6,21.2,30.16,NE,45,6.7,8.9,68,0.00,,,0.00,WUHU21623XXSP,2013-02-28 22:30:00,
2013-02-28 16:35:00,30.6,21.0,30.16,NNE,22,7.8,10.3,68,0.00,,,0.00,WUHU21623XXSP,2013-02-28 22:35:00,
2013-02-28 16:40:00,30.4,20.7,30.16,NNE,22,5.1,10.3,67,0.00,,,0.00,WUHU21623XXSP,2013-02-28 22:40:00,
2013-02-28 16:45:00,30.4,20.7,30.16,ENE,67,5.4,9.4,67,0.00,,,0.00,WUHU21623XXSP,2013-02-28 22:45:00,
2013-02-28 16:50:00,30.4,20.7,30.16,NNE,22,7.4,9.8,67,0.00,,,0.00,WUHU21623XXSP,2013-02-28 22:50:00,
2013-02-28 16:55:00,30.4,20.7,30.15,NNE,17,6.7,9.8,67,0.00,,,0.00,WUHU21623XXSP,2013-02-28 22:55:00,
2013-02-28 17:00:00,30.2,20.5,30.15,NNE,29,5.7,10.3,67,0.00,,,0.00,WUHU21623XXSP,2013-02-28 23:00:00,
2013-02-28 17:05:00,30.2,20.5,30.15,North,0,9.6,10.7,67,0.00,,,0.00,WUHU21623XXSP,2013-02-28 23:05:00,
2013-02-28 17:10:00,30.0,20.3,30.15,NNE,17,6.1,10.7,67,0.00,,,0.00,WUHU21623XXSP,2013-02-28 23:10:00,
2013-02-28 17:15:00,30.0,20.3,30.15,NNE,22,6.3,10.3,67,0.00,,,0.00,WUHU21623XXSP,2013-02-28 23:15:00,
2013-02-28 17:20:00,30.0,20.3,30.15,NNE,16,7.1,10.7,67,0.00,,,0.00,WUHU21623XXSP,2013-02-28 23:20:00,
2013-02-28 17:25:00,29.8,20.2,30.15,NNE,22,9.4,10.7,67,0.00,,,0.00,WUHU21623XXSP,2013-02-28 23:25:00,
2013-02-28 17:30:00,29.8,20.2,30.15,NE,45,4.7,9.4,67,0.00,,,0.00,WUHU21623XXSP,2013-02-28 23:30:00,
2013-02-28 17:35:00,29.8,20.2,30.15,NNE,27,4.9,7.8,67,0.00,,,0.00,WUHU21623XXSP,2013-02-28 23:35:00,
2013-02-28 17:40:00,29.8,20.2,30.15,NNE,17,5.0,7.8,67,0.00,,,0.00,WUHU21623XXSP,2013-02-28 23:40:00,
2013-02-28 17:45:00,29.8,20.5,30.15,North,0,5.6,8.3,68,0.00,,,0.00,WUHU21623XXSP,2013-02-28 23:45:00,
2013-02-28 17:50:00,29.8,20.5,30.15,NNE,22,5.8,9.4,68,0.00,,,0.00,WUHU21623XXSP,2013-02-28 23:50:00,
2013-02-28 17:55:00,29.7,20.4,30.15,North,0,5.1,11.9,68,0.00,,,0.00,WUHU21623XXSP,2013-02-28 23:55:00,
2013-02-28 18:00:00,29.7,20.4,30.15,North,5,7.0,11.9,68,0.00,,,0.00,WUHU21623XXSP,2013-03-01 00:00:00,
2013-02-28 18:05:00,29.5,20.2,30.15,North,0,6.0,9.6,68,0.00,,,0.00,WUHU21623XXSP,2013-03-01 00:05:00,
2013-02-28 18:10:00,29.5,20.2,30.15,NNE,13,4.0,9.6,68,0.00,,,0.00,WUHU21623XXSP,2013-03-01 00:10:00,
2013-02-28 18:15:00,29.5,20.2,30.15,NNE,22,2.0,8.7,68,0.00,,,0.00,WUHU21623XXSP,2013-03-01 00:15:00,
2013-02-28 18:20:00,29.5,20.2,30.15,NNE,15,4.4,8.5,68,0.00,,,0.00,WUHU21623XXSP,2013-03-01 00:20:00,
2013-02-28 18:25:00,29.5,20.2,30.15,NNE,16,4.9,12.1,68,0.00,,,0.00,WUHU21623XXSP,2013-03-01 00:25:00,
2013-02-28 18:30:00,29.3,20.0,30.15,NNE,15,5.7,12.1,68,0.00,,,0.00,WUHU21623XXSP,2013-03-01 00:30:00,
2013-02-28 18:35:00,29.3,20.0,30.16,NNE,22,6.7,10.1,68,0.00,,,0.00,WUHU21623XXSP,2013-03-01 00:35:00,
2013-02-28 18:40:00,29.3,20.0,30.16,NNE,15,5.5,9.6,68,0.00,,,0.00,WUHU21623XXSP,2013-03-01 00:40:00,
2013-02-28 18:45:00,29.3,20.0,30.16,NNE,13,3.8,9.6,68,0.00,,,0.00,WUHU21623XXSP,2013-03-01 00:45:00,
2013-02-28 18:50:00,29.3,20.0,30.16,NNE,12,2.4,6.0,68,0.00,,,0.00,WUHU21623XXSP,2013-03-01 00:50:00,
2013-02-28 18:55:00,29.1,20.2,30.17,North,10,4.8,9.8,69,0.00,,,0.00,WUHU21623XXSP,2013-03-01 00:55:00,
2013-02-28 19:00:00,29.1,20.2,30.17,North,0,6.5,9.8,69,0.00,,,0.00,WUHU21623XXSP,2013-03-01 01:00:00,
2013-02-28 19:05:00,29.1,20.2,30.17,NNE,21,5.6,8.1,69,0.00,,,0.00,WUHU21623XXSP,2013-03-01 01:05:00,
2013-02-28 19:10:00,29.1,20.2,30.17,NNE,13,5.6,8.9,69,0.00,,,0.00,WUHU21623XXSP,2013-03-01 01:10:00,
2013-02-28 19:15:00,29.1,20.2,30.17,NNE,21,4.3,10.3,69,0.00,,,0.00,WUHU21623XXSP,2013-03-01 01:15:00,
2013-02-28 19:20:00,29.1,20.2,30.17,NNE,21,3.2,10.3,69,0.00,,,0.00,WUHU21623XXSP,2013-03-01 01:20:00,
2013-02-28 19:25:00,29.1,20.2,30.17,NNE,23,4.1,10.3,69,0.00,,,0.00,WUHU21623XXSP,2013-03-01 01:25:00,
2013-02-28 19:30:00,29.1,20.2,30.17,NNE,22,6.5,8.7,69,0.00,,,0.00,WUHU21623XXSP,2013-03-01 01:30:00,
2013-02-28 19:36:00,29.1,20.2,30.17,North,0,4.7,8.7,69,0.00,,,0.00,WUHU21623XXSP,2013-03-01 01:36:00,
2013-02-28 19:41:00,28.9,20.1,30.18,North,6,5.0,11.0,69,0.00,,,0.00,WUHU21623XXSP,2013-03-01 01:41:00,
2013-02-28 19:46:00,28.9,20.1,30.18,NNE,22,7.4,11.0,69,0.00,,,0.00,WUHU21623XXSP,2013-03-01 01:46:00,
2013-02-28 19:51:00,28.9,20.1,30.18,North,0,5.4,8.7,69,0.00,,,0.00,WUHU21623XXSP,2013-03-01 01:51:00,
2013-02-28 19:56:00,28.8,19.9,30.18,North,0,3.4,7.4,69,0.00,,,0.00,WUHU21623XXSP,2013-03-01 01:56:00,
2013-02-28 20:01:00,28.8,19.9,30.18,NNE,22,3.6,10.7,69,0.00,,,0.00,WUHU21623XXSP,2013-03-01 02:01:00,
2013-02-28 20:06:00,28.6,19.7,30.18,North,0,3.1,10.7,69,0.00,,,0.00,WUHU21623XXSP,2013-03-01 02:06:00,
2013-02-28 20:11:00,28.6,19.7,30.18,NNE,16,2.5,8.7,69,0.00,,,0.00,WUHU21623XXSP,2013-03-01 02:11:00,
2013-02-28 20:16:00,28.2,19.4,30.18,NNE,22,2.9,6.3,69,0.00,,,0.00,WUHU21623XXSP,2013-03-01 02:16:00,
2013-02-28 20:21:00,28.2,19.4,30.18,North,11,1.1,3.4,69,0.00,,,0.00,WUHU21623XXSP,2013-03-01 02:21:00,
2013-02-28 20:26:00,28.0,19.2,30.18,NNE,22,4.0,5.8,69,0.00,,,0.00,WUHU21623XXSP,2013-03-01 02:26:00,
2013-02-28 20:31:00,28.0,19.2,30.18,NNE,15,5.1,6.9,69,0.00,,,0.00,WUHU21623XXSP,2013-03-01 02:31:00,
2013-02-28 20:36:00,27.7,18.9,30.18,North,0,4.5,6.9,69,0.00,,,0.00,WUHU21623XXSP,2013-03-01 02:36:00,
2013-02-28 20:41:00,27.7,18.9,30.18,NNE,16,3.0,7.6,69,0.00,,,0.00,WUHU21623XXSP,2013-03-01 02:41:00,
2013-02-28 20:46:00,27.5,18.7,30.17,NNE,12,5.1,7.6,69,0.00,,,0.00,WUHU21623XXSP,2013-03-01 02:46:00,
2013-02-28 20:51:00,27.5,18.7,30.18,NNE,12,3.0,7.4,69,0.00,,,0.00,WUHU21623XXSP,2013-03-01 02:51:00,
2013-02-28 20:56:00,27.3,18.5,30.18,North,0,3.8,6.7,69,0.00,,,0.00,WUHU21623XXSP,2013-03-01 02:56:00,
2013-02-28 21:01:00,27.1,18.3,30.18,NNE,15,4.9,8.5,69,0.00,,,0.00,WUHU21623XXSP,2013-03-01 03:01:00,
2013-02-28 21:06:00,27.1,18.3,30.18,NNE,22,5.6,8.5,69,0.00,,,0.00,WUHU21623XXSP,2013-03-01 03:06:00,
2013-02-28 21:11:00,27.0,18.1,30.18,NNE,22,2.0,8.1,69,0.00,,,0.00,WUHU21623XXSP,2013-03-01 03:11:00,
2013-02-28 21:16:00,26.8,18.0,30.18,North,5,1.7,5.4,69,0.00,,,0.00,WUHU21623XXSP,2013-03-01 03:16:00,
2013-02-28 21:21:00,26.8,18.0,30.17,North,0,1.6,5.4,69,0.00,,,0.00,WUHU21623XXSP,2013-03-01 03:21:00,
2013-02-28 21:26:00,26.6,17.8,30.17,North,4,1.4,2.7,69,0.00,,,0.00,WUHU21623XXSP,2013-03-01 03:26:00,
2013-02-28 21:31:00,26.4,17.6,30.17,NNE,22,2.2,4.0,69,0.00,,,0.00,WUHU21623XXSP,2013-03-01 03:31:00,
2013-02-28 21:36:00,26.4,17.6,30.17,NNE,18,3.1,4.5,69,0.00,,,0.00,WUHU21623XXSP,2013-03-01 03:36:00,
2013-02-28 21:41:00,26.2,17.4,30.17,NNE,22,3.6,5.1,69,0.00,,,0.00,WUHU21623XXSP,2013-03-01 03:41:00,
2013-02-28 21:46:00,26.2,17.4,30.17,NNE,22,6.0,6.0,69,0.00,,,0.00,WUHU21623XXSP,2013-03-01 03:46:00,
2013-02-28 21:51:00,25.9,17.4,30.17,North,7,3.2,7.8,70,0.00,,,0.00,WUHU21623XXSP,2013-03-01 03:51:00,
2013-02-28 21:56:00,25.9,17.4,30.17,North,7,3.2,8.5,70,0.00,,,0.00,WUHU21623XXSP,2013-03-01 03:56:00,
2013-02-28 22:01:00,25.7,17.2,30.17,NNE,17,3.1,8.5,70,0.00,,,0.00,WUHU21623XXSP,2013-03-01 04:01:00,
2013-02-28 22:06:00,25.5,17.1,30.17,NNE,26,3.7,8.1,70,0.00,,,0.00,WUHU21623XXSP,2013-03-01 04:06:00,
2013-02-28 22:11:00,25.5,17.1,30.17,NNE,27,3.4,8.1,70,0.00,,,0.00,WUHU21623XXSP,2013-03-01 04:11:00,
2013-02-28 22:16:00,25.3,16.9,30.17,North,0,5.4,6.0,70,0.00,,,0.00,WUHU21623XXSP,2013-03-01 04:16:00,
2013-02-28 22:22:00,25.3,16.9,30.17,East,90,2.9,6.0,70,0.00,,,0.00,WUHU21623XXSP,2013-03-01 04:22:00,
2013-02-28 22:26:00,25.3,16.9,30.17,ENE,67,4.9,6.5,70,0.00,,,0.00,WUHU21623XXSP,2013-03-01 04:26:00,
2013-02-28 22:32:00,25.2,16.7,30.18,North,0,2.7,6.5,70,0.00,,,0.00,WUHU21623XXSP,2013-03-01 04:32:00,
2013-02-28 22:37:00,25.0,16.5,30.18,North,9,2.8,4.9,70,0.00,,,0.00,WUHU21623XXSP,2013-03-01 04:37:00,
2013-02-28 22:42:00,25.0,16.5,30.18,NNE,22,4.0,5.8,70,0.00,,,0.00,WUHU21623XXSP,2013-03-01 04:42:00,
2013-02-28 22:47:00,25.0,16.5,30.18,NE,45,3.6,6.9,70,0.00,,,0.00,WUHU21623XXSP,2013-03-01 04:47:00,
2013-02-28 22:52:00,25.0,16.5,30.18,NNE,24,4.7,9.4,70,0.00,,,0.00,WUHU21623XXSP,2013-03-01 04:52:00,
2013-02-28 22:57:00,25.0,16.8,30.18,NNE,30,2.6,9.4,71,0.00,,,0.00,WUHU21623XXSP,2013-03-01 04:57:00,
2013-02-28 23:00:00,25.2,17.0,30.18,North,0,3.4,8.1,71,0.00,,,0.00,WUHU21623XXSP,2013-03-01 05:00:00,
2013-02-28 23:01:00,25.2,17.0,30.17,NE,45,3.8,6.7,71,0.00,,,0.00,WUHU21623XXSP,2013-03-01 05:01:00,
2013-02-28 23:06:00,25.2,17.0,30.18,NNE,22,3.6,6.5,71,0.00,,,0.00,WUHU21623XXSP,2013-03-01 05:06:00,
2013-02-28 23:11:00,25.2,17.0,30.18,NE,44,2.8,6.5,71,0.00,,,0.00,WUHU21623XXSP,2013-03-01 05:11:00,
2013-02-28 23:16:00,25.2,17.0,30.18,NNE,26,1.4,5.1,71,0.00,,,0.00,WUHU21623XXSP,2013-03-01 05:16:00,
2013-02-28 23:21:00,25.2,17.0,30.18,NNE,32,4.2,5.8,71,0.00,,,0.00,WUHU21623XXSP,2013-03-01 05:21:00,
2013-02-28 23:26:00,25.2,17.0,30.18,NE,37,3.2,5.8,71,0.00,,,0.00,WUHU21623XXSP,2013-03-01 05:26:00,
2013-02-28 23:31:00,25.2,17.0,30.18,NE,46,3.0,5.6,71,0.00,,,0.00,WUHU21623XXSP,2013-03-01 05:31:00,
2013-02-28 23:36:00,25.2,17.0,30.18,NNE,23,3.1,7.4,71,0.00,,,0.00,WUHU21623XXSP,2013-03-01 05:36:00,
2013-02-28 23:41:00,25.2,17.0,30.18,NE,45,6.0,8.1,71,0.00,,,0.00,WUHU21623XXSP,2013-03-01 05:41:00,
2013-02-28 23:46:00,25.0,16.8,30.18,ENE,67,3.8,8.1,71,0.00,,,0.00,WUHU21623XXSP,2013-03-01 05:46:00,
2013-02-28 23:51:00,25.0,16.8,30.19,NNE,17,3.3,7.6,71,0.00,,,0.00,WUHU21623XXSP,2013-03-01 05:51:00,
2013-02-28 23:56:00,25.0,16.8,30.19,ENE,57,2.6,6.9,71,0.00,,,0.00,WUHU21623XXSP,2013-03-01 05:56:00,